カタログに戻る

STARLINK-11353

運用中通信VLEO
NORAD 61941·PAYLOAD·🇺🇸 United States

打ち上げ Nov 14, 2024 から Vandenberg Space Force Base

Loading…

次のパス (今後24時間)

TLE

最新Source: CelesTrak SupGP

元期: Sep 15, 2026, 01:59 UTC

1 61941C 24209C   26258.08312500 -.00006881  00000+0 -56672-4 0  2582
2 61941  53.1568 157.2835 0001267  83.9441 106.1324 15.69716031    14

AllMySatでSTARLINK-11353をリアルタイム追跡

Download on the App Store